Brize Norton, United Kingdom

4:39 PM BST on May 21, 2018 (GMT +0100)
Brize Norton Air Base

Weather History for EGVN - June, 2013

Change the Weather History Date:

Friday, June 21, 2013

  Actual Average Record
Temperature  
Mean Temperature 63 °F -  
Max Temperature 71 °F 68 °F 90 °F (2017)
Min Temperature 53 °F 51 °F 44 °F (2004)
Degree Days  
Heating Degree Days 2    
Growing Degree Days 13 (Base 50)    
Moisture  
Dew Point 57 °F    
Average Humidity 86    
Maximum Humidity 100    
Minimum Humidity 53    
Precipitation  
Precipitation 0.04 in - - ()
Sea Level Pressure  
Sea Level Pressure 29.81 in    
Wind  
Wind Speed 4 mph ()    
Max Wind Speed 12 mph    
Max Gust Speed 24 mph    
Visibility 4.5 miles    
Events Rain    
Averages and records for this station are not official NWS values.
T = Trace of Precipitation, MM = Missing Value Source: Averaged Metar Reports

Daily Weather History Graph

Daily Weather History Graph

Search for Another Location

Airport or City:

Astronomy

Jun. 21, 2013 Rise Set
Actual Time 4:47 AM BST 9:28 PM BST
Civil Twilight 3:59 AM BST 10:17 PM BST
Nautical Twilight 2:42 AM BST 11:33 PM BST
Astronomical Twilight 1:40 AM BST 12:35 AM BST
Moon 7:12 PM BST 3:03 AM BST
Length of Visible Light 18h 17m
Length of Day
16h 41m
Waxing Gibbous, 94% of the Moon is Illuminated
Jun 21
Waxing Gibbous
Jun 23
Full
Jun 30
Last Quarter
Jul 8
New
Jul 16
First Quarter

Hourly Weather History & Observations

Time (BST) Temp. Dew Point Humidity Pressure Visibility Wind Dir Wind Speed Gust Speed Precip Events Conditions
12:50 AM 58 °F 56 °F 91% 29.80 in 4 mi South 3.5 mph - -   Mist
12:50 AM 57.2 °F 55.4 °F 94% 29.80 in 4.3 mi South 3.5 mph - N/A   Mostly Cloudy
1:50 AM 57.2 °F 55.4 °F 94% 29.77 in 3.7 mi SW 1.2 mph - N/A   Mostly Cloudy
2:50 AM 57.2 °F 55.4 °F 94% 29.77 in 4.3 mi SSW 3.5 mph - N/A   Overcast
3:50 AM 58 °F 56 °F 90% 29.79 in 4 mi SW 3.5 mph - -   Mist
3:50 AM 57.2 °F 55.4 °F 94% 29.77 in 4.3 mi SW 3.5 mph - N/A   Overcast
4:27 AM 57.2 °F 57.2 °F 100% 29.77 in 2.5 mi SW 3.5 mph - N/A   Light Drizzle
4:50 AM 57.2 °F 57.2 °F 100% 29.77 in 2.5 mi SSW 3.5 mph - N/A   Light Drizzle
5:50 AM 57.2 °F 57.2 °F 100% 29.77 in 1.6 mi WSW 2.3 mph - N/A   Overcast
6:13 AM 57.2 °F 57.2 °F 100% 29.77 in 0.4 mi WSW 4.6 mph - N/A   Light Drizzle
6:50 AM 58 °F 58 °F 100% 29.78 in 1 mi West 4.6 mph - - Rain Light Drizzle
6:50 AM 57.2 °F 57.2 °F 100% 29.77 in 1.2 mi West 4.6 mph - N/A   Light Drizzle
7:14 AM 59.0 °F 59.0 °F 100% 29.77 in 2.5 mi WSW 3.5 mph - N/A   Overcast
7:50 AM 59.0 °F 59.0 °F 100% 29.77 in 2.2 mi SW 3.5 mph - N/A   Mostly Cloudy
8:10 AM 59.0 °F 59.0 °F 100% 29.77 in 2.2 mi SW 4.6 mph - N/A   Mostly Cloudy
8:50 AM 60.8 °F 59.0 °F 94% 29.80 in 2.2 mi SSW 3.5 mph - N/A   Haze
9:12 AM 60.8 °F 59.0 °F 94% 29.80 in 1.2 mi SW 3.5 mph - N/A Rain Rain
9:33 AM 59.0 °F 59.0 °F 100% 29.80 in 0.9 mi WNW 6.9 mph - N/A Rain Rain
9:50 AM 59 °F 58 °F 97% 29.83 in 1 mi West 5.8 mph - - Rain Heavy Rain
9:50 AM 59.0 °F 59.0 °F 100% 29.80 in 1.4 mi West 5.8 mph - N/A Rain Rain
10:11 AM 59.0 °F 59.0 °F 100% 29.83 in 1.6 mi West 5.8 mph - N/A Rain Light Rain
10:50 AM 59.0 °F 59.0 °F 100% 29.83 in 2.2 mi West 5.8 mph - N/A Rain Light Rain
11:07 AM 60.8 °F 59.0 °F 94% 29.83 in 2.2 mi West 4.6 mph - N/A Rain Light Rain
11:50 AM 62.6 °F 59.0 °F 88% 29.83 in 5.0 mi West 5.8 mph - N/A   Haze
12:50 PM 69 °F 60 °F 65% 29.83 in 6 mi SW 5.8 mph - -   Partly Cloudy
12:50 PM 68.0 °F 59.0 °F 73% 29.83 in 6.2 mi SW 5.8 mph - N/A   Mostly Cloudy
1:50 PM 68.0 °F 57.2 °F 68% 29.83 in 6.2 mi SSW 6.9 mph - N/A   Mostly Cloudy
2:50 PM 71.6 °F 53.6 °F 53% 29.83 in 6.2 mi SW 8.1 mph - N/A   Mostly Cloudy
3:50 PM 68 °F 56 °F 55% 29.84 in 19 mi WSW 6.9 mph - -   Mostly Cloudy
3:50 PM 68.0 °F 55.4 °F 64% 29.83 in 6.2 mi WSW 6.9 mph - N/A   Mostly Cloudy
4:50 PM 68.0 °F 57.2 °F 68% 29.83 in 6.2 mi WSW 9.2 mph - N/A   Mostly Cloudy
5:50 PM 69.8 °F 57.2 °F 64% 29.83 in 6.2 mi WSW 10.4 mph - N/A   Partly Cloudy
6:50 PM 68 °F 56 °F 58% 29.85 in 25 mi SW 10.4 mph - -   Scattered Clouds
6:50 PM 68.0 °F 57.2 °F 68% 29.83 in 6.2 mi SW 10.4 mph - N/A   Partly Cloudy
7:50 PM 64.4 °F 55.4 °F 73% 29.86 in 6.2 mi SW 10.4 mph 24.2 mph N/A   Partly Cloudy
8:50 PM 60.8 °F 53.6 °F 77% 29.86 in 6.2 mi WSW 11.5 mph - N/A   Partly Cloudy
9:50 PM 57 °F 52 °F 79% 29.87 in 19 mi WSW 5.8 mph - -   Scattered Clouds
9:50 PM 57.2 °F 51.8 °F 82% 29.86 in 6.2 mi WSW 5.8 mph - N/A   Partly Cloudy
10:50 PM 55.4 °F 48.2 °F 77% 29.86 in 6.2 mi WSW 6.9 mph - N/A   Partly Cloudy
11:50 PM 53.6 °F 48.2 °F 82% 29.83 in 6.2 mi South 5.8 mph - N/A   Mostly Cloudy